#�ϑ�����,���ϕ���,���ϕ���,�ő啗��,�ő啗����������,�ő�u�ԕ���,�ő�u�ԕ�����������
#(�N����),(m/s)   ,(16����),(m/s)   ,(16����)        ,(m/s)       ,(16����)            
2012/9/17 3:50,6.7,5,6.7,5,6.7,5
2012/9/17 3:51,5.3,4,6.7,5,7.8,4
2012/9/17 3:52,5.3,5,5.5,5,7.8,6
2012/9/17 3:53,5,5,5.3,5,7.2,6
2012/9/17 3:54,4.8,5,4.9,5,6.7,6
2012/9/17 3:55,4.7,5,4.7,5,7.4,5
2012/9/17 3:56,4.5,5,4.6,5,5.7,3
2012/9/17 3:57,4.2,5,4.4,5,4.2,7
2012/9/17 3:58,4.2,5,4.2,5,6.1,4
2012/9/17 3:59,4.3,5,4.3,5,7.2,5
2012/9/17 4:00,4.1,5,4.3,5,4.1,7
2012/9/17 4:01,4.1,5,4.2,4,6,5
2012/9/17 4:02,4.2,5,4.2,5,11,7
2012/9/17 4:03,4.3,5,4.3,5,10.1,6
2012/9/17 4:04,4.4,5,4.4,5,7,6
2012/9/17 4:09,0.9,2,0.9,2,2.1,3
2012/9/17 4:10,1.4,4,1.4,4,2.5,5
2012/9/17 4:11,1.6,6,1.6,5,3.2,7
2012/9/17 5:09,4.4,5,4.4,5,4.4,5
2012/9/17 5:10,8.2,6,8.4,6,15.3,6
2012/9/17 5:11,7.8,6,7.9,6,12.6,8
2012/9/17 5:12,7.3,6,7.7,6,11.3,6
2012/9/17 5:13,6.5,6,7.2,6,7.9,7
2012/9/17 5:14,5.9,6,6.5,6,7.1,8
2012/9/17 5:23,6.8,6,6.8,6,7.1,6
2012/9/17 5:24,5.2,6,7.5,6,8.7,5
2012/9/17 5:25,5.1,7,5.4,6,8.9,6
2012/9/17 5:26,4.9,7,5.2,6,6.3,8
2012/9/17 5:27,5,7,5,6,8.4,3
2012/9/17 5:28,4.9,7,5,6,8.5,7
2012/9/17 5:29,5,7,5,6,8.6,8
2012/9/17 5:30,5,7,5.1,6,11.3,6
2012/9/17 5:31,5.2,7,5.2,6,10.8,6
2012/9/17 5:32,5.2,7,5.3,6,10.2,7
2012/9/17 5:33,4.9,7,5.1,6,5.2,8
2012/9/17 5:34,4.6,7,4.8,7,5.2,9
2012/9/17 5:35,4.4,7,4.6,7,5.6,6
2012/9/17 5:36,4.2,6,4.4,7,4.4,5
2012/9/17 5:37,4.3,6,4.3,7,10.8,6
2012/9/17 5:38,4.3,6,4.4,7,9.9,7
2012/9/17 5:39,4.2,6,4.3,7,8.1,7
2012/9/17 5:40,4.2,6,4.2,7,9.5,6
2012/9/17 5:41,4.1,6,4.2,7,9.7,5
2012/9/17 5:42,4.1,6,4.1,7,8.3,7
2012/9/17 5:43,4.3,6,4.3,7,8.4,6
2012/9/17 5:44,4.4,6,4.4,7,8.4,7
2012/9/17 5:45,4.5,6,4.5,6,9.1,7
2012/9/17 5:46,4.9,7,4.9,7,11.6,8
2012/9/17 5:47,4.7,7,4.9,7,7.5,7
2012/9/17 5:48,4.7,7,4.7,7,13.1,8
2012/9/17 5:49,5.1,7,5.1,7,10.8,6
2012/9/17 5:50,5.2,7,5.2,7,9.4,7
2012/9/17 5:51,5.2,7,5.2,7,12.1,8
2012/9/17 5:52,5.1,7,5.2,7,9.1,6
2012/9/17 5:53,5,7,5.1,7,6.3,5
2012/9/17 5:54,5.3,7,5.3,7,13.9,7
2012/9/17 5:55,5.4,7,5.4,7,11.3,7
2012/9/17 5:56,5.5,7,5.5,7,11.5,7
2012/9/17 5:57,5.5,7,5.6,7,13.6,7
2012/9/17 5:58,5.9,7,6,7,17.4,6
2012/9/17 5:59,5.7,7,5.9,7,12.4,8
2012/9/17 6:00,5.7,7,5.8,7,13.9,8
2012/9/17 6:01,5.5,7,5.7,7,10.3,6
2012/9/17 6:02,5.7,7,5.7,7,13.3,6
2012/9/17 6:03,6,7,6,7,10.5,6
2012/9/17 6:04,5.9,7,6.2,7,13.3,8
2012/9/17 6:05,5.6,7,5.9,7,6.7,5
2012/9/17 6:06,5.5,7,5.6,7,10.8,6
2012/9/17 6:07,5.3,7,5.4,7,7.6,7
2012/9/17 6:08,4.8,7,5.3,7,7.6,6
2012/9/17 6:09,4.8,7,4.9,7,7.8,7
2012/9/17 6:10,4.7,7,4.8,7,7,7
2012/9/17 6:11,4.9,7,4.9,7,12.1,7
2012/9/17 6:12,5,7,5.1,7,12.8,7
2012/9/17 6:13,4.9,7,5,7,12.2,7
2012/9/17 6:14,5.1,7,5.1,7,15.7,5
2012/9/17 6:15,5.3,7,5.3,7,12.7,5
2012/9/17 6:16,5.3,7,5.4,7,12.1,8
2012/9/17 6:17,5.6,7,5.6,7,11.9,7
2012/9/17 6:18,5.6,7,5.7,7,8.3,6
2012/9/17 6:19,5.3,7,5.6,7,8.5,6
2012/9/17 6:20,5.3,7,5.4,7,7.7,7
2012/9/17 6:21,5.3,7,5.3,7,8.4,5
2012/9/17 6:22,4.9,7,5.2,7,6.5,5
2012/9/17 6:23,4.9,6,4.9,7,7.7,7
2012/9/17 6:24,4.7,6,5,7,7.2,6
2012/9/17 6:25,4.7,6,4.8,7,11,5
2012/9/17 6:26,4.9,6,5,7,11.5,7
2012/9/17 6:27,4.7,6,4.9,7,10,8
2012/9/17 6:28,4.8,6,4.8,7,9.5,8
2012/9/17 6:29,4.8,6,4.8,7,5.8,6
2012/9/17 6:30,5,6,5,7,11.5,7
2012/9/17 6:31,4.9,6,5,7,9.1,7
2012/9/17 6:32,4.9,6,4.9,6,7.9,6
2012/9/17 6:33,4.8,6,4.9,6,4.9,6
2012/9/17 6:34,4.7,6,4.7,6,11.6,7
2012/9/17 6:35,4.5,6,4.7,6,10.2,7
2012/9/17 6:36,4.6,6,4.6,6,12.5,6
2012/9/17 6:37,5,6,5,6,14.1,4
2012/9/17 6:38,5.1,6,5.1,6,10,5
2012/9/17 6:39,5.4,6,5.4,6,13.1,6
2012/9/17 6:40,5.4,6,5.6,6,14.2,7
2012/9/17 6:41,5.9,6,5.9,6,12.8,6
2012/9/17 6:42,5.9,6,5.9,6,8.5,6
2012/9/17 6:43,6.1,6,6.2,6,11.3,7
2012/9/17 6:44,6.2,6,6.2,6,10.6,9
2012/9/17 6:45,6.3,6,6.4,6,11.6,8
2012/9/17 6:46,6.2,6,6.3,6,12.6,6
2012/9/17 6:47,6.2,6,6.3,6,12.3,6
2012/9/17 6:48,6,6,6.2,6,7.5,5
2012/9/17 6:49,5.7,6,6,6,7.7,9
2012/9/17 6:50,5.4,6,5.6,6,7,6
2012/9/17 6:51,5,6,5.4,6,10.7,6
2012/9/17 6:52,5.1,6,5.2,6,12.7,5
2012/9/17 6:53,5,6,5.1,6,8.7,6
2012/9/17 6:54,5.2,6,5.3,6,8.4,7
2012/9/17 6:55,5.1,6,5.2,6,8.1,6
2012/9/17 6:56,4.9,6,5.2,6,9,9
2012/9/17 6:57,4.7,6,4.9,6,7.8,6
2012/9/17 6:58,4.7,6,4.8,6,9.7,8
2012/9/17 6:59,5,6,5,6,12.4,6
2012/9/17 7:00,5,6,5.1,6,8.9,6
2012/9/17 7:01,5,6,5.1,6,8.2,8
2012/9/17 7:02,4.7,7,5,6,7.1,8
2012/9/17 7:03,4.6,6,4.7,6,6.7,6
2012/9/17 7:04,4.5,7,4.6,6,15.3,7
2012/9/17 7:05,4.9,7,4.9,6,12.8,5
2012/9/17 7:06,5,7,5,6,10.6,9
2012/9/17 7:07,4.9,7,5,6,6.8,7
2012/9/17 7:08,5,7,5,6,10.7,6
2012/9/17 7:09,4.9,7,5.1,6,9.2,6
2012/9/17 7:10,5,7,5,6,9.5,7
2012/9/17 7:11,4.9,7,5,7,7.7,8
2012/9/17 7:12,5.3,7,5.3,7,9.9,7
2012/9/17 7:13,5.5,7,5.5,7,8.6,7
2012/9/17 7:14,5.4,7,5.6,7,6.9,7
2012/9/17 7:15,4.9,7,5.4,7,8.3,8
2012/9/17 7:16,4.6,7,4.9,7,7.2,8
2012/9/17 7:17,4.6,7,4.7,7,6.1,9
2012/9/17 7:54,2.4,5,2.4,5,5.8,8
2012/9/17 7:55,3.6,8,4.3,8,8.1,8
2012/9/17 7:56,4.1,8,4.6,8,9.3,8
2012/9/17 7:57,4.1,8,4.2,8,7.5,8
2012/9/17 7:58,4.2,8,4.3,8,8.3,6
2012/9/17 7:59,4.4,8,4.4,8,11,8
2012/9/17 8:00,4.5,8,4.5,8,9.3,8
2012/9/17 8:01,4.7,7,4.7,7,9.7,6
2012/9/17 8:02,5.1,7,5.1,7,13.2,7
2012/9/17 8:03,5.2,7,5.3,7,11.7,6
2012/9/17 8:36,2.1,8,2.1,8,2.1,8
2012/9/17 8:37,3.7,6,3.7,6,9,6
2012/9/17 8:38,4.9,6,4.9,6,11,4
2012/9/17 8:39,4.9,6,4.9,6,9.2,6
2012/9/17 8:40,5.2,7,5.2,7,11.4,8
2012/9/17 8:41,5.7,7,5.7,7,13.2,6
2012/9/17 8:42,5.7,7,5.7,7,9.3,7
2012/9/17 8:43,5.7,7,5.8,7,9.2,8
2012/9/17 8:44,5.8,7,5.8,7,12.1,8
2012/9/17 8:45,5.6,7,5.8,7,7.5,7
2012/9/17 8:46,5.6,7,5.6,7,9.4,7
2012/9/17 8:47,5.6,7,5.7,7,7.1,8
2012/9/17 8:48,5.5,7,5.6,7,9.9,6
2012/9/17 8:49,5.7,7,5.7,7,10.1,6
2012/9/17 8:50,5.7,7,5.8,7,13.3,7
2012/9/17 8:51,5.4,7,5.7,7,8.9,7
2012/9/17 8:52,5.2,7,5.4,7,8.4,9
2012/9/17 9:31,5.5,5,5.5,5,6.8,7
2012/9/17 9:32,4.5,7,5.5,5,9.2,6
2012/9/17 9:33,5.6,8,5.9,7,15.3,9
2012/9/17 9:34,6.6,8,7,8,16.8,8
2012/9/17 9:35,6.9,7,7.2,7,15.3,6
2012/9/17 9:36,6.8,7,6.9,7,13.5,7
2012/9/17 9:37,6.9,7,7,7,14.2,8
2012/9/17 9:38,6.4,7,6.8,7,7.8,7
2012/9/17 9:39,5.9,7,6.4,7,7.2,7
2012/9/17 9:40,5.5,7,5.9,7,5.4,8
2012/9/17 9:41,5.1,7,5.4,7,5.6,7
2012/9/17 9:42,5.1,8,5.1,7,9.5,8
2012/9/17 9:43,4.9,7,5.2,7,10.5,8
2012/9/17 9:44,4.8,7,4.9,7,13,7
2012/9/17 9:45,4.5,7,4.8,7,9,6
2012/9/17 9:46,4.4,7,4.5,7,8.7,6
2012/9/17 9:47,4.3,7,4.4,7,11.3,8
2012/9/17 9:48,4.1,7,4.3,7,7.2,5
2012/9/17 10:05,12.2,7,12.2,7,12.7,7
2012/9/17 10:06,10.5,6,12.2,7,16.9,7
2012/9/17 10:07,10.2,7,10.7,7,14.2,6
2012/9/17 10:08,8.5,7,10,7,14,7
2012/9/17 10:09,7.3,7,8.5,7,13.3,8
2012/9/17 10:10,6.8,7,7.2,7,10.9,8
2012/9/17 10:11,6.5,7,6.8,7,11.5,7
2012/9/17 10:12,6.2,7,6.5,7,10.1,8
2012/9/17 10:13,6,7,6.2,7,11.7,8
2012/9/17 10:14,5.8,7,6,7,9,5
2012/9/17 10:15,5.6,7,5.7,7,8.1,5
2012/9/17 10:16,5,7,5.5,6,7.4,8
2012/9/17 10:17,4.5,7,4.9,7,12.8,7
2012/9/17 10:18,4.6,7,4.6,7,10.6,8
2012/9/17 10:19,4.9,7,4.9,7,11.9,9
2012/9/17 10:20,5,7,5,7,12.8,8
2012/9/17 10:21,4.7,7,5,7,5.8,7
2012/9/17 10:22,4.8,7,4.9,7,7.9,7
2012/9/17 10:23,4.7,7,4.8,7,8.6,7
2012/9/17 10:24,4.7,7,4.7,7,10.7,6
2012/9/17 10:25,4.9,7,4.9,7,9.8,6
2012/9/17 10:26,4.8,7,4.9,7,6.3,5
2012/9/17 10:27,4.8,7,4.9,7,10.7,5
2012/9/17 10:28,4.6,7,4.8,7,9.4,8
2012/9/17 10:59,10.5,5,10.5,5,10.5,5
2012/9/17 11:00,9.3,6,10.5,5,13.2,6
2012/9/17 11:10,5.7,8,5.7,8,7.1,6
2012/9/17 11:11,8,7,8,7,13.3,7
2012/9/17 11:12,7.5,7,8.3,7,12.5,6
2012/9/17 11:13,7.3,7,7.3,7,11.9,8
2012/9/17 11:14,6.4,7,7.2,7,10.8,7
2012/9/17 11:15,6.1,7,6.3,7,9.4,6
2012/9/17 11:16,5.8,7,6,7,7.5,6
2012/9/17 11:17,5.7,7,5.8,7,8.5,6
2012/9/17 11:18,5.7,7,5.7,7,11.9,7
2012/9/17 11:19,5.6,7,5.7,7,9.3,8
2012/9/17 11:20,5.4,7,5.6,7,9.2,8
2012/9/17 11:21,5,7,5.3,7,9.3,5
2012/9/17 11:22,4.9,7,5,7,8.9,8
2012/9/17 11:23,4.7,7,5,7,12.1,7
2012/9/17 11:24,4.8,7,4.8,7,8.4,5
2012/9/17 11:25,4.9,7,4.9,7,9.9,6
2012/9/17 11:26,4.7,7,4.9,7,5.2,4
2012/9/17 11:27,4.7,7,4.8,7,9.8,8
2012/9/17 11:28,4.7,7,4.8,7,11,5
2012/9/17 11:29,4.7,7,4.7,7,8.4,7
2012/9/17 11:30,4.9,7,4.9,7,10.2,5
2012/9/17 11:31,5.2,6,5.2,6,10.3,7
2012/9/17 11:32,5,6,5.1,6,10.1,6
2012/9/17 11:33,5.1,6,5.1,6,14.3,8
2012/9/17 11:55,7,6,7,6,7,6
2012/9/17 11:56,5.8,7,9,7,13.4,7
2012/9/17 11:57,5.5,6,5.8,7,9.8,6
2012/9/17 11:58,5.6,6,5.6,7,9.1,6
2012/9/17 11:59,5.8,6,5.8,7,12.5,6
2012/9/17 12:00,6.1,6,6.3,7,16.2,6
2012/9/17 12:01,6,6,6.2,7,9.4,5
2012/9/17 12:02,6,6,6,7,12.3,7
2012/9/17 13:35,5.1,6,5.1,6,5.8,5
2012/9/17 13:36,4.5,7,6.7,6,11.4,7
2012/9/17 13:37,4.9,6,4.9,6,9.8,5
2012/9/17 13:38,5.6,6,5.6,6,10.3,6
2012/9/17 13:39,5.9,6,5.9,6,11.5,6
2012/9/17 13:40,5.5,6,5.9,6,7.7,6
2012/9/17 13:41,5.6,6,5.6,6,10.2,5
2012/9/17 13:42,5.5,6,5.6,6,7.8,6
2012/9/17 13:43,5.4,6,5.5,6,7.5,6
2012/9/17 13:44,5.5,6,5.5,6,10.1,6
2012/9/17 13:45,5.3,6,5.5,6,6.4,6
2012/9/17 13:46,5.3,6,5.4,6,7.7,6
2012/9/17 13:47,5.2,6,5.3,6,6.9,5
2012/9/17 13:48,4.8,6,5.2,6,4.9,4
2012/9/17 13:49,4.5,6,4.7,6,7.5,5
2012/9/17 13:50,4.6,6,4.6,6,7,7
2012/9/17 13:51,4.3,6,4.5,6,7.4,4
2012/9/17 13:52,4.3,6,4.3,6,8.4,4
2012/9/17 13:53,4.2,6,4.3,6,8.4,4
2012/9/17 13:54,3.9,6,4.2,6,8.9,4
2012/9/17 13:55,4.1,6,4.1,6,9.3,6
2012/9/17 13:56,4.3,6,4.3,6,11,5
2012/9/17 13:57,4.6,6,4.6,6,13.1,5
2012/9/17 13:58,5,6,5,6,10.1,5
2012/9/17 13:59,5.2,6,5.2,6,10.6,7
2012/9/17 14:00,5.4,6,5.4,6,10,6
2012/9/17 14:01,5.4,6,5.4,6,8.3,6
2012/9/17 14:02,5.3,6,5.4,6,4.8,4
2012/9/17 14:03,5.4,6,5.4,6,8.4,7
2012/9/17 14:04,5.6,6,5.6,6,15,6
2012/9/17 14:05,5.5,6,5.6,6,7.7,6
2012/9/17 14:06,5.1,6,5.4,6,6.8,6
2012/9/17 14:07,4.6,6,5,6,3.2,4
2012/9/17 14:08,4.2,6,4.5,6,9.1,6
2012/9/17 14:09,3.9,6,4.2,6,5.6,5
2012/9/17 14:10,4,6,4.1,6,13.2,6
2012/9/17 14:11,4.1,6,4.1,6,8.5,6
2012/9/17 14:12,4.3,6,4.3,6,9.8,8
2012/9/17 14:13,4,6,4.3,6,7.2,6
2012/9/17 14:14,3.9,6,4,6,6.1,5
2012/9/17 14:15,3.9,6,3.9,6,12.8,5
2012/9/17 14:16,4.4,6,4.4,6,10.7,6
2012/9/17 14:17,4.7,6,4.7,6,9.7,7
2012/9/17 14:18,5.1,6,5.1,6,11.4,6
2012/9/17 14:19,5.4,6,5.4,6,9.2,7
2012/9/17 14:20,5.3,6,5.4,6,11.3,7
2012/9/17 14:21,5.3,6,5.3,6,9.9,7
2012/9/17 14:22,5.5,6,5.5,6,11.5,6
2012/9/17 14:23,5.8,6,5.8,6,9.2,7
2012/9/17 14:24,5.7,6,5.8,6,5.4,8
2012/9/17 14:25,5.4,6,5.6,6,4.9,5
2012/9/17 14:26,5.1,6,5.3,6,6,5
2012/9/17 14:27,5,6,5.1,6,9.5,6
2012/9/17 14:28,4.8,6,5.1,6,11.1,8
2012/9/17 14:29,4.4,6,4.8,6,7,5
2012/9/17 14:30,4.3,6,4.3,6,10.8,8
2012/9/17 14:31,4.4,6,4.4,6,9.1,6
2012/9/17 14:32,4.2,6,4.4,6,7.6,6
2012/9/17 14:33,4.3,6,4.3,6,13.1,6
2012/9/17 14:34,4.6,6,4.6,6,10.1,6
2012/9/17 14:35,4.6,6,4.7,6,7.9,8
2012/9/17 14:36,4.6,6,4.7,6,5.4,5
2012/9/17 14:37,4.4,6,4.6,6,3.9,7
2012/9/17 14:38,4.1,6,4.3,6,5.7,7
2012/9/17 14:39,4.2,6,4.2,6,5.4,7
2012/9/17 14:40,4,6,4.2,6,5,6
2012/9/17 14:41,4,6,4,6,9.2,4
2012/9/17 14:42,3.9,6,4,6,9.3,5
2012/9/17 14:43,3.6,6,3.9,6,6.8,7
2012/9/17 14:44,3.2,6,3.6,6,4.4,5
2012/9/17 14:45,3.1,6,3.2,6,4.4,7
2012/9/17 14:46,3.2,6,3.2,6,9,7
2012/9/17 14:47,3.2,6,3.2,6,7.4,7
2012/9/17 14:48,3.6,6,3.6,6,10.5,7
2012/9/17 14:49,3.7,6,3.8,6,12.2,8
2012/9/17 14:50,3.9,6,3.9,6,8.1,7
2012/9/17 14:51,3.9,6,3.9,6,9.2,7
2012/9/17 14:52,3.9,6,3.9,6,7.7,7
2012/9/17 14:53,4,6,4,6,8.2,6
2012/9/17 14:54,4.4,6,4.4,6,9.7,6
2012/9/17 14:55,4.7,6,4.7,6,10.1,7
2012/9/17 14:56,4.8,6,4.8,6,11.4,8
2012/9/17 14:57,5,7,5,6,9.8,8
2012/9/17 14:58,4.9,7,5,6,9,6
2012/9/17 14:59,5.3,7,5.3,7,12.7,6
2012/9/17 15:00,5.6,7,5.6,6,12.8,5
2012/9/17 15:01,5.7,7,5.8,7,10.6,6
2012/9/17 15:02,6,7,6,7,13.2,7
2012/9/17 15:03,6.1,7,6.1,7,13.1,8
2012/9/17 15:04,6,7,6.1,7,12.3,8
2012/9/17 15:05,6.1,7,6.1,7,11.4,7
2012/9/17 15:06,6.3,7,6.4,7,12.2,6
2012/9/17 15:07,6.4,7,6.4,7,12.2,8
2012/9/17 15:08,6.4,7,6.5,7,7.8,8
2012/9/17 15:09,5.9,7,6.3,7,8.9,8
2012/9/17 15:10,5.5,7,5.9,7,6.2,7
2012/9/17 15:11,5.2,7,5.5,7,7.2,6
2012/9/17 15:12,5.1,7,5.2,7,9.5,6
2012/9/17 15:13,4.9,7,5.1,7,7.5,6
2012/9/17 15:14,4.8,7,5,7,8.6,7
2012/9/17 15:15,4.5,7,4.8,7,7.8,7
2012/9/17 15:16,4.4,7,4.4,7,8.9,5
2012/9/17 15:17,4.4,7,4.5,7,10,6
2012/9/17 15:18,4.5,6,4.5,7,8.5,5
2012/9/17 15:19,4.4,6,4.5,7,7.5,7
2012/9/17 15:20,4.5,6,4.5,7,6.3,6
2012/9/17 15:21,4.6,6,4.6,7,6.8,7
2012/9/17 15:22,4.5,6,4.6,7,8.6,7
2012/9/17 15:23,4.5,6,4.5,7,12.8,5
2012/9/17 15:24,4.7,6,4.7,7,11.8,6
2012/9/17 15:25,4.9,6,4.9,6,10.3,8
2012/9/17 15:26,4.6,6,4.9,6,4.9,8
2012/9/17 15:27,4.5,6,4.6,6,6.5,6
2012/9/17 15:28,4.3,7,4.5,6,6.4,8
2012/9/17 15:29,4.3,7,4.4,6,5.8,6
2012/9/17 15:30,4.1,7,4.3,6,4.3,6
2012/9/17 15:31,4.3,7,4.3,6,11,7
2012/9/17 15:32,4.2,7,4.3,6,8.4,6
2012/9/17 15:33,4,7,4.2,6,8.4,7
2012/9/17 15:34,4,6,4,6,10.2,7
2012/9/17 15:35,3.8,6,3.9,6,8.2,8
2012/9/17 15:36,3.8,6,3.9,6,6.4,9
2012/9/17 15:37,4,6,4,7,8.4,6
2012/9/17 15:38,4.2,6,4.2,7,9.5,6
2012/9/17 15:39,4.3,6,4.3,7,12.1,5
2012/9/17 15:40,4.9,6,4.9,6,13.3,6
2012/9/17 15:41,5.2,6,5.2,6,13.8,5
2012/9/17 15:42,5.2,6,5.2,6,10,8
2012/9/17 15:43,5.6,6,5.6,6,11,6
2012/9/17 15:44,5.3,6,5.5,6,6.4,6
2012/9/17 15:45,5.4,6,5.4,6,9.1,6
2012/9/17 15:46,5.9,6,5.9,6,11.8,6
2012/9/17 15:47,5.9,6,6,6,11.8,6
2012/9/17 15:48,6,6,6,6,10.3,6
2012/9/17 15:49,6.2,6,6.2,6,10.3,6
2012/9/17 15:50,6,6,6.2,6,10.7,5
2012/9/17 15:51,5.5,6,5.9,6,9.3,6
2012/9/17 15:52,5.5,6,5.6,6,9.1,7
2012/9/17 15:53,5.2,6,5.5,6,5,8
2012/9/17 15:54,5.1,6,5.2,6,7.1,5
2012/9/17 15:55,4.9,6,5.1,6,4.1,8
2012/9/17 15:56,4.4,6,4.9,6,5.4,7
2012/9/17 15:57,4.2,6,4.4,6,6.4,7
2012/9/17 15:58,4,6,4.1,6,8.2,4
2012/9/17 15:59,3.8,6,4,6,5.8,7
2012/9/17 16:00,3.6,6,3.8,6,7.4,6
2012/9/17 16:01,3.6,6,3.7,6,6.7,6
2012/9/17 16:02,3.3,6,3.6,6,5.2,7
2012/9/17 16:03,3.5,6,3.5,6,7.6,6
2012/9/17 16:04,3.8,6,3.8,6,11.8,6
2012/9/17 16:05,4,6,4,6,5.7,6
2012/9/17 16:06,4,6,4,6,6.2,7
2012/9/17 16:07,4.1,6,4.1,6,9.2,5
2012/9/17 16:08,4.4,6,4.4,6,10.9,8
2012/9/17 16:09,4.3,6,4.4,6,7.8,7
2012/9/17 16:10,4.2,6,4.3,6,12.4,6
2012/9/17 16:11,4.4,6,4.4,6,8.3,5
2012/9/17 16:12,4.5,6,4.5,6,6.5,5
2012/9/17 16:13,4.5,6,4.6,6,6.4,6
2012/9/17 16:14,4.3,6,4.5,6,7.7,8
2012/9/17 16:15,4.2,6,4.4,6,7.6,6
2012/9/17 16:16,4.3,6,4.3,6,7.5,5
2012/9/17 16:17,4.1,6,4.3,6,7.2,6
2012/9/17 16:18,4,6,4.1,6,11.1,6
2012/9/17 16:19,4.1,6,4.1,6,7.5,6
2012/9/17 16:20,4,6,4.1,6,6.8,7
2012/9/17 16:21,3.9,6,4,6,7.5,7
2012/9/17 16:22,3.9,6,3.9,6,6,6
2012/9/17 16:23,3.9,6,4,6,7.4,5
2012/9/17 16:24,3.9,6,4,6,6.8,6
2012/9/17 16:25,4,6,4,6,7.8,6
2012/9/17 16:26,4.1,6,4.2,6,9,6
2012/9/17 16:27,4.3,6,4.3,6,7.6,5
2012/9/17 16:28,4.1,6,4.4,6,6.2,6
2012/9/17 16:29,4.1,6,4.1,6,9.4,6
2012/9/17 16:30,4.3,6,4.3,6,9.2,5
2012/9/17 16:31,4.4,6,4.4,6,8.2,6
2012/9/17 16:32,4.5,6,4.5,6,9.5,5
2012/9/17 16:33,4.6,6,4.6,6,7.1,6
2012/9/17 16:34,4.6,6,4.6,6,9.7,7
2012/9/17 16:35,4.5,6,4.7,6,7.6,6
2012/9/17 16:36,4.5,6,4.6,6,8.2,6
2012/9/17 16:37,4.4,6,4.5,6,8.1,6
2012/9/17 16:38,4.4,6,4.4,6,6.5,7
2012/9/17 16:39,4.5,6,4.6,6,10,5
2012/9/17 16:40,4.4,6,4.5,6,7.6,5
2012/9/17 16:41,4.2,6,4.4,6,5.2,6
2012/9/17 16:42,4.1,6,4.2,6,7.6,6
2012/9/17 16:43,4.3,6,4.3,6,13.1,4
2012/9/17 16:49,5.4,4,5.4,4,6.7,4
2012/9/17 16:50,3.6,7,5.4,4,6.7,4
2012/9/17 16:51,3.7,7,3.9,4,6.4,7
2012/9/17 16:52,3.6,6,3.6,4,7.1,7
2012/9/17 16:53,3.9,6,4,4,7,7
2012/9/17 16:54,3.7,6,3.9,4,5.4,4
2012/9/17 16:55,3.7,6,3.8,4,6.7,6
2012/9/17 16:56,3.7,6,3.7,4,6.3,5
2012/9/17 16:57,3.7,6,3.7,4,5.6,4
2012/9/17 16:58,3.6,6,3.7,4,4.3,8
2012/9/17 16:59,3.4,6,3.5,4,4.8,6
2012/9/17 17:00,3.4,6,3.4,6,5.5,6
2012/9/17 17:01,3.3,6,3.4,6,4.7,8
2012/9/17 17:02,3.1,6,3.3,6,3.1,7
2012/9/17 17:03,3.1,6,3.1,6,8.4,5
2012/9/17 17:04,3.1,6,3.1,6,5.7,8
2012/9/17 17:05,3.1,6,3.1,6,6.7,5
2012/9/17 17:11,4.5,8,4.5,8,8.2,8
2012/9/17 17:12,4.3,6,7.4,7,10.1,8
2012/9/17 17:13,4,6,4.2,7,4.8,6
2012/9/17 17:14,4.1,6,4.1,7,6.5,4
2012/9/17 17:15,4.2,6,4.3,7,6.9,6
2012/9/17 17:16,4,6,4.2,7,5.4,5
2012/9/17 17:17,3.6,6,3.9,7,3.6,5
2012/9/17 17:18,3.5,6,3.5,7,4.9,7
2012/9/17 17:19,3.8,6,3.8,7,7.7,5
2012/9/17 17:20,3.8,6,3.8,7,7.2,5
2012/9/17 17:21,3.8,6,3.9,7,8.2,6
2012/9/17 17:22,4,6,4,6,8.7,6
2012/9/17 17:23,4.1,6,4.1,6,9.2,6
2012/9/17 17:24,4.1,6,4.2,6,8.7,6
2012/9/17 17:25,4.3,6,4.3,6,7.8,6
2012/9/17 17:26,4.4,6,4.4,6,8.6,6
2012/9/17 17:27,4.5,6,4.5,6,5.4,8
2012/9/17 17:28,4.4,6,4.5,6,5.8,5
2012/9/17 17:29,4.1,6,4.4,6,3.9,6
2012/9/17 17:30,4.1,6,4.1,6,6,6
2012/9/17 17:31,4,6,4.1,6,7.7,6
2012/9/17 17:32,3.9,6,4.1,6,6.8,6
2012/9/17 17:33,3.5,6,3.8,6,2.2,8
2012/9/17 17:34,3.4,6,3.5,6,8.4,7
2012/9/17 17:35,3.3,6,3.4,6,7.9,6
2012/9/17 17:36,3.2,6,3.3,6,7.1,6
2012/9/17 19:07,2.9,4,2.9,4,3.3,4
2012/9/17 19:08,3,4,3,4,3.7,3
2012/9/17 19:09,3,4,3.1,3,4.8,5
2012/9/17 19:10,3.2,4,3.2,4,5.6,7
2012/9/17 19:11,2.8,5,3.2,4,4.5,6
2012/9/17 19:12,2.7,5,2.8,4,3.9,7
2012/9/17 19:13,3,5,3,4,8.1,5
2012/9/17 19:14,3.2,5,3.2,4,7.6,6
2012/9/17 19:15,3.2,5,3.2,4,5.1,6
2012/9/17 19:16,3.2,5,3.2,4,5.2,5
2012/9/17 19:17,3.3,5,3.3,5,5,6
2012/9/17 19:18,3.3,5,3.3,5,5.6,4
2012/9/17 19:19,3.4,6,3.4,6,6.2,5
2012/9/17 19:20,3.3,6,3.4,6,5.8,6
2012/9/17 19:21,3.6,6,3.6,6,8.5,5
2012/9/17 19:22,3.8,6,3.8,6,6.7,4
2012/9/17 19:23,3.9,6,3.9,6,9.8,7
2012/9/17 19:24,4,6,4,6,8.7,6
2012/9/17 19:25,4.2,6,4.2,6,11.8,7
2012/9/17 19:26,4.1,6,4.2,6,5.6,7
2012/9/17 19:27,4,6,4.1,6,4.3,7
2012/9/17 19:28,4.2,6,4.2,6,7.6,6
2012/9/17 19:29,4.2,6,4.2,6,7.4,5
2012/9/17 19:30,4.2,6,4.2,6,5.4,5
2012/9/17 19:31,4,6,4.2,6,6.4,6
2012/9/17 19:32,3.9,6,4,6,6.2,5
2012/9/17 19:33,3.6,6,3.9,6,6.3,5
2012/9/17 19:34,3.6,6,3.7,6,7.7,5
2012/9/17 19:35,3.3,6,3.6,6,5.1,6
2012/9/17 19:36,3.5,6,3.5,6,5.5,5
2012/9/17 19:37,3.5,6,3.5,6,3.9,6
2012/9/17 19:38,3.2,6,3.5,6,2.5,6
2012/9/17 19:39,3,6,3.2,6,3.1,6
2012/9/17 19:40,3,6,3,6,5.4,5
2012/9/17 19:41,3.1,6,3.2,6,6.9,6
2012/9/17 19:42,3,6,3.1,6,3.7,5
2012/9/17 19:43,3,5,3,6,4.8,5
2012/9/17 19:44,3,5,3,6,5.6,4
2012/9/17 19:45,2.9,5,3,6,3.2,6
2012/9/17 19:46,2.9,5,2.9,6,6.8,5
2012/9/17 19:47,2.9,5,2.9,6,4.5,5
2012/9/17 19:48,3,5,3,6,4.9,5
2012/9/17 19:49,3.1,5,3.1,6,4.4,7
2012/9/17 19:50,3.1,5,3.1,6,5,4
2012/9/17 19:51,3,5,3,6,4.5,4
2012/9/17 19:52,3,5,3.1,5,4.2,5
2012/9/17 20:10,1.3,9,1.3,9,1.6,9
2012/9/17 20:11,2.1,6,2.1,6,3.2,6
2012/9/17 20:12,2.9,4,2.9,4,6.7,5
2012/9/17 20:13,3.4,5,3.4,5,6.7,4
2012/9/17 20:14,3.4,5,3.4,5,4.9,6
2012/9/17 20:15,3.3,5,3.5,5,4.9,5
2012/9/17 20:16,3.3,5,3.3,5,5.8,5
2012/9/17 20:17,3.5,5,3.5,5,6.8,5
2012/9/17 20:18,3.5,5,3.5,5,4.7,4
2012/9/17 20:19,3.4,5,3.5,5,4.5,6
2012/9/17 20:20,3.3,5,3.4,5,3.5,5
2012/9/17 20:21,3.3,5,3.3,5,4.5,5
2012/9/17 20:22,3.3,5,3.3,5,4.5,3
2012/9/17 20:23,3.2,5,3.2,5,6.1,5
2012/9/17 20:24,3.3,5,3.3,5,6.1,5
2012/9/17 20:25,3.3,5,3.3,5,4.9,5
2012/9/17 20:26,3.2,5,3.3,5,5.5,7
2012/9/17 20:27,3.1,5,3.2,5,3.9,4
2012/9/17 20:28,3.1,5,3.1,5,5.7,6
2012/9/17 20:29,3.1,5,3.1,5,5.4,4
2012/9/17 20:30,3.1,5,3.1,5,4.7,5
2012/9/17 20:31,3.1,5,3.1,5,4.9,5
2012/9/17 20:32,3.2,5,3.2,5,6.3,4
2012/9/17 20:33,3.3,5,3.3,5,6.3,5
2012/9/17 20:34,3.2,5,3.3,5,5.7,6
2012/9/17 20:35,3.1,5,3.2,5,4.2,5
2012/9/17 20:36,3.2,5,3.2,5,6.2,5
2012/9/17 20:37,3.2,5,3.2,5,4.3,4
2012/9/17 20:38,3.1,5,3.2,5,4.7,6
2012/9/17 20:39,3.2,5,3.2,5,5.4,5
2012/9/17 20:40,3.2,5,3.2,5,6.2,6
2012/9/17 20:41,3.1,5,3.2,5,3.3,3
2012/9/17 20:42,2.9,5,3.1,5,3.2,3
2012/9/17 20:43,2.6,5,2.9,5,2.7,6
2012/9/17 20:44,2.4,6,2.5,5,4.1,8
2012/9/17 20:45,2.5,6,2.5,5,4.9,5
2012/9/17 20:46,2.4,6,2.5,5,4.8,3
2012/9/17 20:47,2.5,6,2.5,5,4.7,6
2012/9/17 20:48,2.4,6,2.4,5,4.3,5
2012/9/17 20:49,2.5,6,2.5,5,5.6,6
2012/9/17 20:50,2.5,6,2.5,5,5.5,5
2012/9/17 20:51,2.6,6,2.6,5,4.8,6
2012/9/17 20:52,2.7,6,2.7,5,4.2,7
2012/9/17 20:53,2.7,6,2.7,6,4.7,6
2012/9/17 20:54,2.8,6,2.8,6,5,6
2012/9/17 20:55,2.7,6,2.8,6,3.3,7
2012/9/17 20:56,2.6,6,2.7,6,4.3,6
2012/9/17 20:57,2.6,6,2.6,6,7.5,5
2012/9/17 20:58,2.9,6,2.9,6,8.7,5
2012/9/17 20:59,2.8,6,2.9,6,6,6
2012/9/17 21:00,2.7,6,2.8,6,3.1,8
2012/9/17 21:01,2.6,6,2.7,6,4.2,7
2012/9/17 21:02,2.6,6,2.7,6,4.2,6
2012/9/17 21:03,2.6,6,2.6,6,2.5,8
2012/9/17 21:04,2.5,6,2.6,6,5.4,8
2012/9/17 21:05,2.5,6,2.5,6,2.5,7
2012/9/17 21:06,2.6,6,2.6,6,3.7,8
2012/9/17 21:07,2.5,7,2.6,6,5,9
2012/9/17 21:08,2.1,7,2.5,6,3.3,8
2012/9/17 21:09,2,7,2.1,6,4.8,8
2012/9/17 21:10,2,7,2,6,3.5,7
2012/9/17 21:11,2,7,2,6,3.9,8
2012/9/17 21:12,2,8,2,6,4.5,7
2012/9/17 21:13,2.1,8,2.1,6,3.5,7
2012/9/17 21:14,2.2,8,2.2,6,4.8,7
2012/9/17 21:15,2.3,8,2.3,6,3.5,7
2012/9/17 21:16,2.5,8,2.5,6,7.5,7
2012/9/17 21:17,2.7,8,2.7,8,6.1,7
2012/9/17 21:18,2.7,7,2.7,8,4.9,9
2012/9/17 21:19,2.7,7,2.8,7,6.7,7
2012/9/17 21:20,2.8,7,2.8,7,4.4,8
2012/9/17 21:21,2.9,7,2.9,7,5.6,8
2012/9/17 21:22,2.9,7,2.9,7,5.5,6
2012/9/17 21:23,3,7,3,7,7,8
2012/9/17 21:24,2.8,7,3,7,3.6,9
2012/9/17 21:25,2.8,7,2.8,7,3.9,6
2012/9/17 21:26,2.6,7,2.8,7,5.8,7
2012/9/17 21:27,2.4,7,2.6,7,3.7,5
2012/9/17 21:28,2.6,7,2.7,7,7,8
2012/9/17 21:29,2.7,7,2.7,7,6.1,7
2012/9/17 21:30,2.9,7,2.9,7,6,8
2012/9/17 21:31,2.9,7,2.9,7,6.3,8
2012/9/17 22:09,2.6,7,2.6,7,2.6,6
2012/9/17 22:10,2.5,6,2.7,7,3.5,6
2012/9/17 22:11,2.4,6,2.8,6,3.9,6
2012/9/17 22:12,2,7,2.3,6,2.7,8
2012/9/17 22:13,2.1,7,2.2,6,4.8,8
2012/9/17 22:14,2,7,2.1,6,2.9,7
2012/9/17 22:15,2.2,7,2.3,6,6.1,8
2012/9/17 22:16,2.3,7,2.3,6,3.9,7
2012/9/17 22:17,2.4,7,2.4,6,4.8,7
2012/9/17 22:18,2.4,7,2.4,6,4.7,9
2012/9/17 22:19,2.3,7,2.4,6,3.6,7
2012/9/17 22:20,2.4,7,2.4,6,3.8,7
2012/9/17 22:21,2.4,8,2.4,7,3.8,8
2012/9/17 22:22,2.5,8,2.5,8,3.7,7
2012/9/17 22:23,2.3,8,2.5,8,2.7,9
2012/9/17 22:24,2.4,8,2.4,8,5.1,8
2012/9/17 22:25,2.4,8,2.5,8,4.7,7
2012/9/17 22:26,2.4,8,2.4,8,4.4,7
2012/9/17 22:27,2.3,8,2.4,8,4.4,7
2012/9/17 22:28,2.3,8,2.3,8,3.8,7
2012/9/17 22:29,2.2,8,2.3,8,3.5,8
2012/9/17 22:30,2.1,8,2.2,8,3.2,8
2012/9/17 22:31,2,8,2.1,8,3,9
2012/9/17 22:32,2.2,8,2.2,8,5.8,8
2012/9/17 22:33,2.3,8,2.3,8,4.1,8
2012/9/17 22:34,2.3,8,2.4,8,3.6,8
2012/9/17 22:35,2.2,8,2.3,8,4.2,7
2012/9/17 22:36,2.3,8,2.3,8,4.1,8
2012/9/17 22:37,2.4,8,2.4,8,6.2,8
2012/9/17 22:38,2.4,8,2.4,8,4.1,8
2012/9/17 22:39,2.5,8,2.5,8,3.9,8
2012/9/17 22:40,2.6,8,2.6,8,4.5,7
2012/9/17 22:41,2.7,8,2.7,8,4.5,8
2012/9/17 22:42,2.6,8,2.7,8,4.7,8
2012/9/17 22:43,2.6,8,2.6,8,5.1,6
2012/9/17 22:44,2.6,7,2.6,8,4.9,6
2012/9/17 22:45,2.7,7,2.7,8,5.2,6
2012/9/17 22:46,2.9,7,2.9,7,6.2,8
2012/9/17 22:47,2.8,7,2.9,7,5.6,9
2012/9/17 22:48,2.9,7,2.9,7,5.7,8
2012/9/17 22:49,3,7,3,7,6.8,7
2012/9/17 22:50,3.1,7,3.1,7,6.1,6
2012/9/17 22:51,3.3,7,3.3,7,5.4,8
2012/9/17 22:52,3.2,7,3.3,7,5,7
2012/9/17 22:53,3.2,7,3.2,7,5.2,8
2012/9/17 22:54,3.3,7,3.3,7,6.4,8
2012/9/17 22:55,3.4,7,3.4,7,7.5,9
2012/9/17 22:56,3.3,7,3.4,7,4.5,7
2012/9/17 22:57,3.4,7,3.4,7,6.5,7
2012/9/17 22:58,3.3,7,3.4,7,5.4,8
2012/9/17 22:59,3.4,7,3.4,7,7.4,7
2012/9/17 23:00,3.3,7,3.4,7,6.8,7
2012/9/17 23:01,3.3,7,3.3,7,7.2,7
2012/9/17 23:02,3.4,7,3.4,7,4.4,9
2012/9/17 23:03,3.4,7,3.5,7,7.1,8
2012/9/17 23:04,3.4,8,3.5,7,7.9,7
2012/9/17 23:05,3.3,8,3.4,7,6.1,9
2012/9/17 23:06,3.5,8,3.5,7,10.6,8
2012/9/17 23:07,3.6,8,3.7,8,8.3,8
2012/9/17 23:08,3.7,8,3.8,8,6.9,7
2012/9/17 23:09,3.8,8,3.8,8,6.7,8
2012/9/17 23:10,3.9,8,3.9,8,6.8,7
2012/9/17 23:11,4,8,4,8,6.8,7
2012/9/17 23:12,4.1,8,4.1,8,7.4,9
2012/9/17 23:13,4,8,4,8,3.9,8
2012/9/17 23:14,3.9,8,4,8,6,10
2012/9/17 23:15,4,8,4,8,4.9,6
2012/9/17 23:16,3.6,8,4,8,4.3,8
2012/9/17 23:17,3.3,8,3.6,8,3.3,6
2012/9/17 23:18,3,8,3.3,8,2.7,7
2012/9/17 23:19,2.7,8,3,8,1.6,9
2012/9/17 23:20,2.5,8,2.7,8,3.1,8
2012/9/17 23:21,2.1,8,2.4,8,2.5,9
2012/9/17 23:22,1.8,8,2.1,8,2.4,10
2012/9/17 23:23,1.7,8,1.8,8,1.5,7
2012/9/17 23:24,1.4,8,1.7,8,1.8,9
2012/9/17 23:25,1.3,8,1.4,8,2.6,8
2012/9/17 23:26,1.3,8,1.3,8,2.6,5
2012/9/17 23:27,1.2,8,1.2,8,2.5,9
2012/9/17 23:28,1.2,7,1.2,8,2.6,8
2012/9/17 23:29,1.3,7,1.3,8,2.2,5
2012/9/17 23:30,1.3,7,1.3,8,3.1,6
2012/9/17 23:31,1.5,7,1.5,8,3.9,7
2012/9/17 23:32,1.5,7,1.5,8,2.5,6
2012/9/17 23:33,1.6,7,1.6,8,3.5,5
2012/9/17 23:34,1.8,6,1.8,6,3.7,5
2012/9/17 23:35,1.8,6,1.8,6,3,6
2012/9/17 23:36,2,6,2,6,3.7,6
2012/9/17 23:37,2,6,2,6,3.2,4
2012/9/17 23:38,2.2,6,2.2,6,4.3,6
2012/9/17 23:39,2.3,6,2.3,6,4.4,6